Lid_Strength_Index
7 6 6 5 5 4 4 4 3 2 2 3 3 5 5 5 6 7 7 7 7 7 7 7 7 7 6
8 7 7 6 5 6 6 5 4 3 3 3 5 4 5 6 6 7 7 8 8 8 8 8 8 7 7
8 8 8 7 8 7 7 7 7 6 6 5 5 6 6 6 6 7 8 8 9 9 8 8 8 8 7
9 10 10 9 7 8 9 8 10 10 8 7 6 6 6 6 7 7 8 9 9 9 9 8 8 8 7
8 8 9 9 8 9 8 9 10 10 10 10 10 10 9 8 9 8 9 9 9 8 8 8 7 7 7
9 8 9 10 8 8 11 12 12 11 12 12 12 12 11 10 10 10 9 9 8 8 8 8 8 7 7
8 9 9 9 9 12 12 12 12 13 13 13 13 12 11 11 10 9 9 9 8 8 8 7 7 7 7
7 8 8 9 10 10 11 13 13 13 13 14 12 12 11 11 11 10 10 9 9 9 8 8 8 7 7
8 8 8 8 10 11 13 13 14 13 12 11 12 12 13 12 11 10 8 9 9 9 8 8 8 8 8
10 9 9 9 9 10 11 12 12 12 11 12 14 13 12 11 10 10 9 10 9 9 9 8 8 8 8
11 11 11 10 10 10 10 10 12 13 12 11 11 12 11 11 11 10 10 10 10 10 10 9 9 9 10
12 12 12 13 13 12 12 12 10 10 9 10 12 11 12 13 13 11 11 10 10 10 10 10 10 10 9
11 12 12 12 12 12 12 12 12 11 11 11 11 12 12 13 13 13 12 11 11 11 11 11 11 11 11
12 12 12 12 12 12 13 13 12 13 12 11 11 12 13 13 13 13 13 14 12 11 11 11 11 11 11
12 13 13 13 13 13 13 13 12 13 13 13 14 13 12 13 14 13 13 13 13 12 12 12 11 11 11
13 13 13 13 13 14 13 12 13 13 14 14 14 14 14 13 13 13 13 14 13 12 13 14 13 11 10
14 14 14 12 11 12 12 12 13 13 13 15 15 15 16 17 13 11 13 14 13 13 12 13 13 11 10